Kaneohe, HI

8:19 AM HST on September 27, 2016 (GMT -1000)
Kaneohe Bay Marine Corps Air Facility

Weather History for PHNG - March, 2012

Change the Weather History Date:

Thursday, March 29, 2012

  Actual Average Record
Temperature  
Mean Temperature 76 °F -  
Max Temperature 82 °F 75 °F 84 °F (2016)
Min Temperature 69 °F 68 °F 66 °F (2007)
Cooling Degree Days 10    
Growing Degree Days 26 (Base 50)    
Moisture  
Dew Point 61 °F    
Average Humidity 62    
Maximum Humidity 76    
Minimum Humidity 52    
Precipitation  
Precipitation 0.00 in - - ()
Sea Level Pressure  
Sea Level Pressure 30.09 in    
Wind  
Wind Speed 7 mph (ENE)    
Max Wind Speed 10 mph    
Max Gust Speed 17 mph    
Visibility 7 miles    
Events Rain    
Averages and records for this station are not official NWS values.
T = Trace of Precipitation, MM = Missing Value Source: NWS Daily Summary

Daily Weather History Graph

Daily Weather History Graph

Search for Another Location

Airport or City:

Trip Planner

Search our weather history database for the weather conditions in past years. The results will help you decide how hot, cold, wet, or windy it might be!

Date:

Astronomy

Mar. 29, 2012 Rise Set
Actual Time 6:26 AM HST 6:45 PM HST
Civil Twilight 6:03 AM HST 7:07 PM HST
Nautical Twilight 5:37 AM HST 7:33 PM HST
Astronomical Twilight 5:11 AM HST 7:59 PM HST
Moon 11:21 AM HST (3/29) 12:09 AM HST (3/29)
Length of Visible Light 13h 03m
Length of Day
12h 19m
Waxing Crescent, 41% of the Moon is Illuminated
Mar 29
Waxing Crescent
Mar 30
First Quarter
Apr 6
Full
Apr 13
Last Quarter
Apr 20
New

Hourly Weather History & Observations

Time (HST) Temp. Heat Index Dew Point Humidity Pressure Visibility Wind Dir Wind Speed Gust Speed Precip Events Conditions
12:57 AM 71.6 °F - 59.0 °F 64% 30.09 in 7.0 mi East 8.1 mph - N/A   Mostly Cloudy
1:57 AM 71.6 °F - 57.2 °F 60% 30.07 in 7.0 mi ENE 6.9 mph - N/A   Scattered Clouds
2:57 AM 69.8 °F - 57.2 °F 64% 30.06 in 7.0 mi East 5.8 mph - N/A   Partly Cloudy
3:57 AM 71.6 °F - 59.0 °F 64% 30.06 in 7.0 mi East 6.9 mph - N/A   Mostly Cloudy
5:57 AM 69.8 °F - 57.2 °F 64% 30.06 in 7.0 mi East 4.6 mph - N/A   Partly Cloudy
6:57 AM 69.8 °F - 57.2 °F 64% 30.07 in 7.0 mi East 4.6 mph - N/A   Partly Cloudy
7:57 AM 73.4 °F - 59.0 °F 61% 30.09 in 7.0 mi East 6.9 mph - N/A   Partly Cloudy
8:57 AM 75.0 °F - 62.1 °F 64% 30.10 in 7.0 mi East 6.9 mph - N/A   Partly Cloudy
9:57 AM 76.5 °F - 61.2 °F 59% 30.12 in 7.0 mi ENE 8.1 mph - N/A   Partly Cloudy
10:57 AM 78.6 °F - 62.1 °F 57% 30.12 in 7.0 mi NE 8.1 mph - N/A   Partly Cloudy
11:57 AM 79.0 °F - 64.0 °F 60% 30.10 in 7.0 mi NE 9.2 mph - N/A   Partly Cloudy
12:57 PM 81.3 °F 82.6 °F 63.1 °F 54% 30.08 in 7.0 mi NE 9.2 mph - N/A   Partly Cloudy
1:57 PM 81.3 °F 82.6 °F 63.1 °F 54% 30.06 in 7.0 mi NE 9.2 mph - N/A   Partly Cloudy
2:57 PM 82.4 °F 84.1 °F 64.9 °F 55% 30.06 in 7.0 mi NE 9.2 mph - N/A   Partly Cloudy
3:57 PM 82.4 °F 83.5 °F 63.1 °F 52% 30.05 in 10.0 mi NE 6.9 mph - N/A   Partly Cloudy
4:57 PM 79.5 °F - 61.3 °F 54% 30.06 in 7.0 mi NE 10.4 mph - N/A   Partly Cloudy
5:57 PM 76.6 °F - 61.3 °F 59% 30.08 in 7.0 mi ENE 8.1 mph - N/A   Partly Cloudy
6:57 PM 75.2 °F - 62.1 °F 64% 30.09 in 7.0 mi NE 8.1 mph - N/A   Scattered Clouds
7:57 PM 71.8 °F - 61.7 °F 70% 30.11 in 7.0 mi ENE 5.8 mph - N/A   Partly Cloudy
8:57 PM 73.4 °F - 62.1 °F 68% 30.13 in 7.0 mi NE 8.1 mph - N/A   Partly Cloudy
9:57 PM 72.5 °F - 64.6 °F 76% 30.15 in 7.0 mi NE 8.1 mph 17.3 mph 0.00 in Rain Light Rain
10:57 PM 73.9 °F - 62.8 °F 68% 30.15 in 7.0 mi ENE 10.4 mph 16.1 mph 0.00 in   Scattered Clouds
11:57 PM 72.1 °F - 61.2 °F 68% 30.15 in 7.0 mi ENE 8.1 mph - N/A   Mostly Cloudy